Printer-friendly version
Follow the MPC on Twitter Follow the MPC on Facebook The MPC blog
Minor Planet Center

MPEC 2006-W111: 2006 WH130

The following Minor Planet Electronic Circular may be linked-to from your own Web pages, but must not otherwise be redistributed electronically.

A form allowing access to any MPEC is at the bottom of this page.


Read MPEC 2006-W110 Read MPEC 2006-W112


M.P.E.C. 2006-W111                               Issued 2006 Nov. 29, 15:58 UT

     The Minor Planet Electronic Circulars contain information on unusual
         minor planets and routine data on comets.  They are published
   on behalf of Commission 20 of the International Astronomical Union by the
          Minor Planet Center, Smithsonian Astrophysical Observatory,
                          Cambridge, MA 02138, U.S.A.

             Prepared using the Tamkin Foundation Computer Network

                              MPC@CFA.HARVARD.EDU
          URL http://cfa-www.harvard.edu/iau/mpc.html  ISSN 1523-6714

                                  2006 WH130

Observations:
     K06WD0H* C2006 11 28.25829 03 33 40.03 +11 06 16.8          19.7   EW111704
     K06WD0H  C2006 11 28.27125 03 33 36.49 +11 08 32.7          20.6   EW111704
     K06WD0H  C2006 11 28.28422 03 33 33.05 +11 10 51.1          20.4   EW111704
     K06WD0H  C2006 11 28.29720 03 33 29.53 +11 13 09.8          20.3   EW111704
     K06WD0H  C2006 11 28.31018 03 33 26.12 +11 15 27.7          20.2   EW111704
     K06WD0H  C2006 11 28.93751 03 30 58.24 +13 07 19.1                 EW111J95
     K06WD0H  C2006 11 28.94086 03 30 57.42 +13 07 55.5                 EW111J95
     K06WD0H  C2006 11 28.94363 03 30 56.65 +13 08 24.7          19.3 R EW111J95
     K06WD0H  C2006 11 29.31383 03 29 24.34 +14 15 44.6          20.1 R EW111854
     K06WD0H  C2006 11 29.31728 03 29 23.55 +14 16 22.9          19.8 R EW111854
     K06WD0H  C2006 11 29.45892 03 28 47.31 +14 43 20.6          19.8 V EW111F84
     K06WD0H  C2006 11 29.47486 03 28 42.86 +14 46 11.9                 EW111F84

Observer details:
704 Lincoln Laboratory ETS, New Mexico.  Observers M. Bezpalko, D. Torres,
    R. Kracke, G. Spitz, J. Kistler.  Measurers J. Stuart, S. Scruggs.  1.0-m
    f/2.15 reflector + CCD.
854 Sabino Canyon Observatory, Tucson.  Observer J. E. McGaha.  0.36-m f/10.0
    Schmidt-Cassegrain + CCD.
F84 Hibiscus Observatory, Punaauia.  Observer N. Teamo.  Measurer J. C. Pelle.
    0.35-m f/3.88 Schmidt-Cassegrain + 1392x1040 CCD.
J95 Great Shefford.  Observer P. Birtwhistle.  0.40-m f/6.0 Schmidt-Cassegrain
    + CCD.

Orbital elements:
2006 WH130                                               Earth MOID = 0.0891 AU
Epoch 2006 Sept. 22.0 TT = JDT 2454000.5                MPC
M 301.22100              (2000.0)            P               Q
n   0.66230655     Peri.   18.33190     +0.09411257     -0.95835760
a   1.3034569      Node    66.99820     +0.87284557     -0.05082757
e   0.1802583      Incl.   17.03199     +0.47883550     +0.28101115
P   1.49           H   24.1           G   0.15           U   8
Residuals in seconds of arc
061128 704  0.0   1.2+    061128 704  0.7+  0.0     061129 854  1.6-  0.5-
061128 704  0.7-  0.9-    061128 J95  0.5-  0.2+    061129 854  0.9+  0.4+
061128 704  0.0   0.5-    061128 J95  0.6+  0.3+    061129 F84  0.1+  0.5+
061128 704  0.4-  0.1+    061128 J95  0.1+  0.4-    061129 F84  0.2-  0.6-

Ephemeris:
2006 WH130               a,e,i = 1.30, 0.18, 17                  q = 1.0685
Date    TT    R. A. (2000) Decl.     Delta      r     Elong.  Phase     V
2006 11 21    03 58.60   -07 31.8    0.111    1.087   152.4    24.9    20.7
2006 11 26    03 42.22   +04 39.1    0.0984   1.081   162.8    15.6    20.1
2006 12 01    03 22.38   +19 24.5    0.0935   1.077   164.6    14.0    19.9
2006 12 06    02 59.45   +34 17.4    0.0970   1.073   153.3    24.4    20.3
2006 12 11    02 34.25   +46 45.7    0.108    1.070   140.7    35.7    20.9
2006 12 16    02 08.21   +55 58.8    0.124    1.069   130.5    44.4    21.4
2006 12 21    01 43.28   +62 27.0    0.143    1.068   123.1    50.5    21.9

Kyle E. Smalley              (C) Copyright 2006 MPC           M.P.E.C. 2006-W111

Read MPEC 2006-W110 Read MPEC 2006-W112


MPEC number:

Enter an MPEC number in one of the following forms:

  • 1997-B01 (the full form)
  • J97B01 (the packed version of the full form)
  • B01 (the abbreviated form)

Valid HTML 4.01!